[[{"header":{"parameterUnit":"m.s-1","parameterCategory":1,"la1":30.2991,"la2":30.254,"lo1":-89.0895,"lo2":-89.0444,"dy":0.0017,"dx":0.0017,"nx":28,"ny":28,"refTime":"2025-12-26T03:00:00:Z","depth":0,"parameterNumber":2,"parameterNumberName":"U-component_of_WINDS"},"data":[0,0,0,0,0,0,0,0,0,0,0,0,0,0,0,0,0,0,0,0,0,0,0,0,0,0,0,0,0,0,0,0,0,0,0,0,0,0,0,0,0,0,0,0,0,0,0,0,0,0,0,0,0,0,0,0,0,0,1.5582,1.5583,0,1.5664,1.5665,1.5665,1.5662,1.5661,1.566,1.5658,1.5744,1.5747,1.575,0,0,0,0,0,0,0,0,0,0,0,0,0,1.5425,1.5428,1.5582,1.5583,1.5584,1.5663,1.5665,1.5666,1.5662,1.5661,1.5659,1.5658,1.5742,1.5746,1.575,0,0,0,0,0,0,0,0,0,0,0,0,0,1.5498,1.5429,1.5582,1.5592,1.5593,1.5663,1.5665,1.5666,1.5662,1.5661,1.5659,1.5657,1.5741,1.5746,1.5751,1.5817,0,0,1.5766,1.5768,0,0,0,0,0,0,0,0,1.5494,1.5504,1.5589,1.5591,1.5593,1.5651,1.564,1.5717,1.5663,1.5636,1.5658,1.5656,1.5714,1.5721,1.574,1.5821,1.5824,1.5767,1.577,1.5772,1.5773,0,0,0,0,0,0,0,1.5489,1.5501,1.5614,1.559,1.5593,1.5593,1.5601,1.5655,1.5684,1.5638,1.5638,1.5648,1.5715,1.5736,1.5742,1.5826,1.5767,1.5771,1.5774,1.5776,1.5966,1.5967,0,0,0,0,0,0,1.5482,1.5496,1.5612,1.5617,1.5538,1.5597,1.5607,1.5634,1.5683,1.5689,1.5649,1.5648,1.5728,1.5737,1.5745,1.5826,1.5772,1.5777,1.5779,1.5964,1.5966,1.5968,0,0,0,0,0,0,1.5478,1.5492,1.5608,1.5557,1.5571,1.5602,1.5632,1.5637,1.5657,1.5692,1.5697,1.5665,1.5727,1.5738,1.5799,1.5829,1.5779,1.5783,1.5961,1.5964,1.5967,1.5988,0,0,0,0,0,0,1.5474,1.5491,1.5515,1.5557,1.5574,1.566,1.5634,1.5639,1.5666,1.5664,1.5708,1.5713,1.5726,1.5792,1.5804,1.5835,1.5787,1.5959,1.5963,1.5966,1.5985,1.5992,1.5998,0,0,0,0,0,1.5468,1.5518,1.5517,1.5531,1.5605,1.5662,1.5672,1.5685,1.5668,1.5694,1.5716,1.5712,1.5824,1.5798,1.5812,1.5845,1.5957,1.5961,1.5966,1.5982,1.5991,1.5997,0,0,0,0,0,0,1.5479,1.5524,1.5522,1.5587,1.5621,1.5661,1.5693,1.5693,1.5732,1.5729,1.5745,1.5755,1.5816,1.5837,1.5807,1.5912,1.5888,1.5896,1.5896,1.5904,1.591,1.5904,1.5791,0,0,0,0,0,1.5489,1.553,1.5567,1.5621,1.5638,1.5663,1.5688,1.5696,1.5731,1.5745,1.5772,1.5807,1.585,1.5879,1.592,1.5988,1.5999,1.6018,1.6024,1.6029,1.6036,1.6075,1.6084,1.5983,1.5983,1.5983,0,0,1.551,1.5539,1.5564,1.5624,1.5651,1.5694,1.5675,1.5721,1.5754,1.5752,1.5811,1.5833,1.5873,1.5938,1.5968,1.5957,1.6066,1.6035,1.6039,1.6043,1.608,1.609,1.6098,1.5986,1.5986,1.5985,0,0,1.557,1.5596,1.5644,1.5672,1.5713,1.5729,1.5741,1.5782,1.5796,1.5855,1.5856,1.5895,1.5969,1.5998,1.6023,1.6096,1.6094,1.6109,1.6141,1.6179,1.6187,1.6194,1.6221,1.623,1.6115,1.6115,1.6115,0,1.559,1.5655,1.5669,1.5716,1.5743,1.5744,1.5793,1.5819,1.5872,1.5891,1.5878,1.5972,1.5999,1.6071,1.6089,1.6109,1.6124,1.6104,1.6185,1.6192,1.6199,1.6225,1.6235,1.6117,1.6117,1.6117,1.6116,0,1.5679,1.5724,1.5758,1.5809,1.584,1.5888,1.591,1.5939,1.5945,1.5963,1.6025,1.6058,1.6107,1.6124,1.613,1.6199,1.6191,1.6181,1.6157,1.621,1.6234,1.6244,1.6119,1.6119,1.6118,1.6118,0,0,1.5747,1.5806,1.5818,1.5842,1.5888,1.5924,1.5972,1.602,1.6046,1.6083,1.6124,1.6188,1.618,1.6207,1.6217,1.625,1.6307,1.6237,1.6238,1.6249,1.6386,1.6393,1.6404,1.6307,1.6308,1.631,1.6383,0,1.5812,1.5898,1.5912,1.5988,1.603,1.6033,1.6076,1.6109,1.6128,1.6168,1.6189,1.6234,1.6219,1.6236,1.6269,1.6293,1.6335,1.6288,1.6347,1.6348,1.6336,1.6417,1.6424,1.6491,1.6392,1.6394,1.6395,0,1.5898,1.5938,1.6018,1.606,1.6078,1.6116,1.6162,1.6199,1.6238,1.625,1.6282,1.6288,1.634,1.6314,1.6387,1.6355,1.638,1.6395,1.6398,1.6404,1.6375,1.6425,1.6512,1.6522,1.641,1.6409,1.6408,0,1.594,1.6014,1.6071,1.6091,1.6142,1.6169,1.6191,1.6228,1.6256,1.6297,1.6315,1.6361,1.6387,1.6423,1.6442,1.6421,1.6513,1.6489,1.6525,1.6525,1.6544,1.6542,1.6637,1.656,1.656,1.656,1.6559,0,1.6011,1.606,1.6091,1.6126,1.6182,1.6199,1.6253,1.6275,1.6309,1.6349,1.6355,1.6393,1.6415,1.6457,1.6472,1.653,1.6542,1.6553,1.6557,1.6553,1.6551,1.6569,1.6565,1.6562,1.6562,1.6561,1.6561,0,1.6067,1.6089,1.6153,1.6195,1.6208,1.6247,1.6284,1.6319,1.6338,1.639,1.6403,1.6433,1.6483,1.6505,1.6567,1.6577,1.6644,1.6644,1.663,1.6632,1.6667,1.6663,1.6776,1.6792,1.6704,1.6705,1.6706,0,1.6111,1.6149,1.6196,1.6223,1.6247,1.6291,1.632,1.6339,1.6369,1.6417,1.6447,1.6497,1.6537,1.6617,1.6645,1.6692,1.6694,1.673,1.6701,1.6696,1.6695,1.6693,1.6697,1.6735,1.6736,1.6737,1.6737,0,1.6186,1.6196,1.6237,1.6284,1.6318,1.6356,1.6392,1.6415,1.644,1.6474,1.6525,1.6556,1.6619,1.6669,1.6719,1.6743,1.6745,1.6747,1.6757,1.6754,1.6745,1.6751,1.6645,1.6744,1.6743,1.6743,1.6742,1.6742,1.6237,1.6272,1.6311,1.6357,1.6387,1.6422,1.6457,1.6482,1.6524,1.6577,1.6586,1.664,1.668,1.6747,1.6773,1.6816,1.6808,1.6823,1.6827,1.6831,1.6833,1.6738,1.6825,1.6825,1.6825,1.6825,1.6825,0,1.6313,1.6339,1.6382,1.6433,1.6471,1.647,1.6511,1.6542,1.659,1.6626,1.6667,1.6726,1.6775,1.6808,1.6857,1.6886,1.6888,1.6899,1.6897,1.6902,1.6838,1.6823,1.6896,1.6896,1.6896,1.6896,1.6896,1.6896,1.6357,1.6415,1.643,1.6504,1.6529,1.6583,1.6606,1.6639,1.6668,1.6734,1.6775,1.6796,1.6832,1.6884,1.693,1.6938,1.6956,1.6967,1.6975,1.6914,1.6907,1.69,1.6886,1.6971,1.6971,1.7036,1.7037,1.7037]},{"header":{"parameterUnit":"m.s-1","parameterCategory":1,"la1":30.2991,"la2":30.254,"lo1":-89.0895,"lo2":-89.0444,"dy":0.0017,"dx":0.0017,"nx":28,"ny":28,"refTime":"2025-12-26T03:00:00:Z","depth":0,"parameterNumber":3,"parameterNumberName":"V-component_of_WINDS"},"data":[0,0,0,0,0,0,0,0,0,0,0,0,0,0,0,0,0,0,0,0,0,0,0,0,0,0,0,0,0,0,0,0,0,0,0,0,0,0,0,0,0,0,0,0,0,0,0,0,0,0,0,0,0,0,0,0,0,0,2.0251,2.0251,0,2.0285,2.0285,2.0286,2.0281,2.0281,2.028,2.0279,2.0312,2.0313,2.0315,0,0,0,0,0,0,0,0,0,0,0,0,0,2.018,2.0181,2.0251,2.0251,2.0252,2.0285,2.0285,2.0286,2.0281,2.0281,2.028,2.0279,2.0312,2.0313,2.0315,0,0,0,0,0,0,0,0,0,0,0,0,0,2.0212,2.0182,2.0251,2.0253,2.0254,2.0285,2.0285,2.0286,2.0281,2.028,2.028,2.0279,2.0311,2.0313,2.0315,2.0345,0,0,2.0321,2.0322,0,0,0,0,0,0,0,0,2.021,2.0215,2.0253,2.0253,2.0254,2.0278,2.0272,2.0306,2.0282,2.0271,2.0279,2.0278,2.0301,2.0304,2.0312,2.0346,2.0348,2.0322,2.0323,2.0324,2.0324,0,0,0,0,0,0,0,2.0208,2.0213,2.0264,2.0253,2.0254,2.0252,2.0256,2.0279,2.029,2.0272,2.0271,2.0276,2.0301,2.031,2.0313,2.0348,2.0322,2.0323,2.0325,2.0326,2.041,2.0411,0,0,0,0,0,0,2.0205,2.0211,2.0263,2.0265,2.023,2.0254,2.0258,2.0271,2.029,2.0292,2.0276,2.0275,2.0307,2.0311,2.0314,2.0352,2.0324,2.0326,2.0327,2.0409,2.041,2.0411,0,0,0,0,0,0,2.0204,2.021,2.0262,2.0238,2.0245,2.0257,2.0271,2.0272,2.0281,2.0294,2.0295,2.0283,2.0307,2.0311,2.0338,2.0353,2.0327,2.0329,2.0408,2.0409,2.0411,2.0426,0,0,0,0,0,0,2.0202,2.021,2.0221,2.0239,2.0246,2.0285,2.0272,2.0273,2.0285,2.0284,2.0301,2.0303,2.0306,2.0335,2.034,2.0355,2.033,2.0407,2.0409,2.041,2.0424,2.0428,2.0431,0,0,0,0,0,2.0199,2.0223,2.0222,2.0228,2.0261,2.0286,2.029,2.0295,2.0286,2.0298,2.0306,2.0302,2.035,2.0337,2.0343,2.0359,2.0406,2.0408,2.041,2.0423,2.0427,2.0431,0,0,0,0,0,0,2.0206,2.0225,2.0224,2.0254,2.0269,2.0285,2.03,2.0299,2.0315,2.0314,2.0318,2.0322,2.0349,2.0356,2.0342,2.039,2.0377,2.038,2.0384,2.0388,2.0392,2.039,2.0332,0,0,0,0,0,2.0211,2.023,2.0246,2.0271,2.0278,2.0288,2.0299,2.0302,2.0316,2.0322,2.0332,2.0346,2.0365,2.0377,2.0394,2.0425,2.0429,2.0439,2.0442,2.0445,2.0448,2.0467,2.0472,2.0419,2.0419,2.0419,0,0,2.0221,2.0234,2.0246,2.0273,2.0284,2.0304,2.0293,2.0314,2.0329,2.0325,2.0352,2.036,2.0375,2.0405,2.0418,2.0412,2.0464,2.0448,2.045,2.0452,2.0469,2.0474,2.0479,2.042,2.042,2.042,0,0,2.025,2.0262,2.0285,2.0297,2.0315,2.0322,2.0328,2.0345,2.035,2.0377,2.0375,2.0392,2.0424,2.0436,2.0446,2.0482,2.0479,2.0487,2.0505,2.0523,2.0527,2.0531,2.0545,2.055,2.049,2.049,2.049,0,2.0261,2.0292,2.0297,2.0319,2.0331,2.033,2.0353,2.0365,2.0387,2.0395,2.0388,2.0429,2.0439,2.0472,2.0481,2.0489,2.0496,2.0486,2.0526,2.053,2.0533,2.0547,2.0552,2.0491,2.0491,2.0491,2.0491,0,2.0304,2.0326,2.0342,2.0366,2.038,2.0402,2.0411,2.0424,2.0426,2.0433,2.0461,2.0474,2.0495,2.0502,2.0503,2.0536,2.0532,2.0525,2.0512,2.054,2.0553,2.0558,2.0492,2.0492,2.0492,2.0492,0,0,2.0338,2.0366,2.0372,2.0384,2.0404,2.042,2.0443,2.0465,2.0477,2.0492,2.0512,2.054,2.0535,2.0546,2.0548,2.0564,2.0594,2.0556,2.0556,2.0564,2.0633,2.0639,2.0644,2.0592,2.0593,2.0593,2.0632,0,2.0371,2.0413,2.0419,2.0456,2.0476,2.0476,2.0496,2.051,2.0518,2.0536,2.0544,2.0564,2.0555,2.0562,2.0578,2.0587,2.0608,2.0584,2.0611,2.0612,2.0608,2.0651,2.0657,2.0693,2.0637,2.0638,2.0638,0,2.0415,2.0434,2.0473,2.0493,2.0502,2.052,2.0541,2.0558,2.0575,2.058,2.0594,2.0594,2.0618,2.0604,2.0637,2.0621,2.0632,2.0638,2.064,2.0644,2.0628,2.0657,2.0704,2.071,2.0646,2.0645,2.0645,0,2.0438,2.0473,2.0502,2.0511,2.0534,2.0547,2.0557,2.0573,2.0587,2.0605,2.0614,2.0634,2.0645,2.0661,2.0667,2.0656,2.0701,2.0686,2.0706,2.0706,2.0716,2.0716,2.0767,2.0721,2.0721,2.0721,2.0721,0,2.0475,2.0499,2.0513,2.053,2.0558,2.0565,2.0592,2.0601,2.0616,2.0635,2.0635,2.0653,2.066,2.0679,2.0684,2.0712,2.0717,2.0721,2.0723,2.0722,2.0722,2.0731,2.0729,2.0722,2.0722,2.0722,2.0722,0,2.0506,2.0515,2.0547,2.0567,2.0572,2.0592,2.0609,2.0626,2.0634,2.0659,2.0665,2.0677,2.07,2.0708,2.0735,2.0738,2.0772,2.077,2.0767,2.0767,2.0787,2.0786,2.0846,2.0855,2.0802,2.0803,2.0803,0,2.0529,2.0548,2.0571,2.0585,2.0596,2.0617,2.0632,2.0638,2.0653,2.0675,2.069,2.0713,2.0732,2.0769,2.078,2.0801,2.0801,2.0821,2.0804,2.0804,2.0803,2.0803,2.0805,2.0824,2.0825,2.0825,2.0825,0,2.057,2.0575,2.0595,2.0619,2.0636,2.0654,2.0671,2.0682,2.0692,2.0708,2.0733,2.0748,2.0777,2.08,2.0822,2.0832,2.0831,2.0831,2.0837,2.0837,2.0835,2.0838,2.0777,2.0829,2.0829,2.0829,2.0828,2.0828,2.0599,2.0617,2.0636,2.066,2.0674,2.0691,2.0709,2.072,2.0741,2.0766,2.0768,2.0795,2.0812,2.0842,2.0853,2.0874,2.0869,2.0877,2.0879,2.0881,2.0884,2.0831,2.0878,2.0878,2.0878,2.0878,2.0877,0,2.0642,2.0655,2.0676,2.0702,2.0721,2.0719,2.0738,2.0754,2.0778,2.0795,2.0814,2.0843,2.0866,2.0879,2.0902,2.0917,2.0917,2.0923,2.0922,2.0925,2.0887,2.088,2.0922,2.0922,2.0922,2.0922,2.0922,2.0922,2.0666,2.0697,2.0704,2.0742,2.0754,2.0782,2.0793,2.0809,2.0823,2.0855,2.0875,2.0884,2.09,2.0924,2.0946,2.0949,2.0958,2.0965,2.0968,2.0932,2.0927,2.0923,2.0917,2.0966,2.0967,2.1005,2.1005,2.1005]}]]